TimeCDT,TemperatureF,Dew PointF,Humidity,Sea Level PressureIn,VisibilityMPH,Wind Direction,Wind SpeedMPH,Gust SpeedMPH,PrecipitationIn,Events,Conditions,WindDirDegrees,DateUTC
12:54 AM,39.9,37.9,93,30.20,7.0,South,8.1,-,0.00,Rain,Light Rain,170,2013-04-22 05:54:00
1:54 AM,41.0,39.0,93,30.19,10.0,South,6.9,-,0.00,Rain,Light Rain,190,2013-04-22 06:54:00
2:54 AM,39.9,39.0,97,30.18,8.0,South,8.1,-,0.01,,Overcast,170,2013-04-22 07:54:00
3:54 AM,41.0,39.0,93,30.17,9.0,South,9.2,-,0.00,,Overcast,180,2013-04-22 08:54:00
4:54 AM,43.0,39.9,89,30.17,10.0,South,10.4,-,N/A,,Overcast,190,2013-04-22 09:54:00
5:54 AM,42.1,39.9,92,30.17,10.0,South,8.1,-,N/A,,Overcast,190,2013-04-22 10:54:00
6:54 AM,44.1,41.0,89,30.18,10.0,South,8.1,-,N/A,,Overcast,190,2013-04-22 11:54:00
7:54 AM,43.0,41.0,93,30.19,8.0,South,5.8,-,N/A,,Overcast,190,2013-04-22 12:54:00
8:51 AM,42.8,42.8,100,30.15,2.5,Calm,Calm,-,N/A,,Overcast,0,2013-04-22 13:51:00
8:54 AM,43.0,42.1,97,30.19,2.5,Calm,Calm,-,N/A,,Overcast,0,2013-04-22 13:54:00
9:16 AM,42.8,42.8,100,30.16,1.2,Calm,Calm,-,N/A,,Overcast,0,2013-04-22 14:16:00
9:24 AM,42.8,42.8,100,30.15,0.8,Calm,Calm,-,N/A,,Overcast,0,2013-04-22 14:24:00
9:54 AM,43.0,42.1,97,30.19,0.5,Calm,Calm,-,N/A,Fog,Fog,0,2013-04-22 14:54:00
10:14 AM,44.6,42.8,93,30.15,1.2,Calm,Calm,-,N/A,,Overcast,0,2013-04-22 15:14:00
10:22 AM,44.6,42.8,93,30.15,2.0,Calm,Calm,-,N/A,,Overcast,0,2013-04-22 15:22:00
10:36 AM,44.6,42.8,93,30.15,3.0,Calm,Calm,-,N/A,,Overcast,0,2013-04-22 15:36:00
10:54 AM,45.0,43.0,93,30.18,6.0,Calm,Calm,-,N/A,,Overcast,0,2013-04-22 15:54:00
11:11 AM,44.6,42.8,93,30.15,6.0,Calm,Calm,-,N/A,,Overcast,0,2013-04-22 16:11:00
11:54 AM,45.0,43.0,93,30.19,7.0,Calm,Calm,-,0.00,Rain,Light Rain,0,2013-04-22 16:54:00
12:21 PM,44.6,42.8,93,30.15,2.0,NW,3.5,-,0.00,Rain,Light Rain,310,2013-04-22 17:21:00
12:32 PM,44.6,42.8,93,30.15,1.2,Calm,Calm,-,0.00,Rain,Light Rain,0,2013-04-22 17:32:00
12:36 PM,44.6,42.8,93,30.15,1.0,Calm,Calm,-,0.00,Rain,Light Rain,0,2013-04-22 17:36:00
12:46 PM,44.6,44.6,100,30.15,1.2,Calm,Calm,-,0.01,Rain,Light Rain,0,2013-04-22 17:46:00
12:54 PM,44.1,43.0,96,30.17,1.8,Calm,Calm,-,0.01,Rain,Light Rain,0,2013-04-22 17:54:00
1:07 PM,44.6,42.8,93,30.14,2.5,ESE,5.8,-,0.00,Rain,Light Rain,120,2013-04-22 18:07:00
1:16 PM,44.6,42.8,93,30.13,3.0,SE,5.8,-,0.00,Rain,Light Rain,130,2013-04-22 18:16:00
1:54 PM,45.0,44.1,97,30.16,1.8,ESE,6.9,-,0.00,,Overcast,120,2013-04-22 18:54:00
2:10 PM,44.6,44.6,100,30.11,2.5,SE,6.9,-,N/A,,Overcast,130,2013-04-22 19:10:00
2:20 PM,44.6,44.6,100,30.11,3.0,SE,6.9,-,N/A,,Overcast,130,2013-04-22 19:20:00
2:41 PM,44.6,44.6,100,30.11,4.0,SE,5.8,-,0.00,Rain,Light Rain,140,2013-04-22 19:41:00
2:54 PM,45.0,44.1,97,30.14,3.0,ESE,9.2,-,0.00,Rain,Light Rain,120,2013-04-22 19:54:00
3:07 PM,44.6,42.8,93,30.10,3.0,SE,6.9,-,0.00,Rain,Light Rain,140,2013-04-22 20:07:00
3:37 PM,44.6,42.8,93,30.08,4.0,ESE,6.9,-,0.01,Rain,Light Rain,120,2013-04-22 20:37:00
3:54 PM,45.0,43.0,93,30.11,4.0,ESE,6.9,-,0.01,Rain,Light Rain,110,2013-04-22 20:54:00
4:07 PM,44.6,42.8,93,30.07,5.0,SE,6.9,-,0.00,Rain,Light Rain,130,2013-04-22 21:07:00
4:38 PM,44.6,42.8,93,30.06,3.0,SE,5.8,-,0.00,Rain,Light Rain,140,2013-04-22 21:38:00
4:54 PM,44.1,43.0,96,30.09,3.0,ESE,6.9,-,0.00,Rain,Light Rain,120,2013-04-22 21:54:00
5:16 PM,44.6,44.6,100,30.04,4.0,East,4.6,-,0.00,Rain,Light Rain,80,2013-04-22 22:16:00
5:28 PM,44.6,44.6,100,30.03,4.0,ENE,4.6,-,0.00,,Overcast,70,2013-04-22 22:28:00
5:54 PM,45.0,44.1,97,30.06,3.0,East,5.8,-,0.00,,Overcast,80,2013-04-22 22:54:00
6:13 PM,44.6,42.8,93,30.02,2.5,ENE,5.8,-,N/A,,Overcast,70,2013-04-22 23:13:00
6:54 PM,44.1,43.0,96,30.04,2.5,ENE,6.9,-,0.00,,Overcast,60,2013-04-22 23:54:00
7:12 PM,44.6,42.8,93,30.01,2.0,ENE,6.9,-,0.00,Rain,Light Rain,60,2013-04-23 00:12:00
7:21 PM,42.8,42.8,100,30.01,1.5,NE,4.6,-,0.01,Rain,Light Rain,40,2013-04-23 00:21:00
7:38 PM,42.8,42.8,100,30.01,2.0,ENE,8.1,-,0.01,Rain,Light Rain,60,2013-04-23 00:38:00
7:54 PM,43.0,42.1,97,30.04,3.0,ENE,9.2,-,0.01,Rain,Light Rain,70,2013-04-23 00:54:00
8:39 PM,42.8,42.8,100,30.00,4.0,NE,8.1,-,0.00,,Overcast,50,2013-04-23 01:39:00
8:54 PM,43.0,42.1,97,30.02,4.0,ENE,10.4,-,0.00,Rain,Light Rain,60,2013-04-23 01:54:00
9:01 PM,42.8,42.8,100,29.98,4.0,NE,11.5,-,0.00,Rain,Light Rain,50,2013-04-23 02:01:00
9:54 PM,42.1,41.0,96,30.01,3.0,ENE,9.2,-,0.00,,Overcast,70,2013-04-23 02:54:00
10:33 PM,42.8,41.0,93,29.99,3.0,ENE,5.8,-,0.00,Rain,Light Rain,70,2013-04-23 03:33:00
10:54 PM,42.1,41.0,96,30.00,3.0,ENE,6.9,-,0.00,Rain,Light Rain,60,2013-04-23 03:54:00
11:29 PM,42.8,41.0,93,29.97,2.5,ENE,8.1,-,0.00,Rain,Light Rain,60,2013-04-23 04:29:00
11:47 PM,42.8,41.0,93,29.96,3.0,ENE,6.9,-,0.00,Rain,Light Rain,70,2013-04-23 04:47:00
11:54 PM,41.0,41.0,100,29.99,2.5,ENE,6.9,-,0.00,Rain,Light Rain,70,2013-04-23 04:54:00